Time,TemperatureF,DewpointF,PressureIn,WindDirection,WindDirectionDegrees,WindSpeedMPH,WindSpeedGustMPH,Humidity,HourlyPrecipIn,Conditions,Clouds,dailyrainin,SolarRadiationWatts/m^2,SoftwareType,DateUTC
2013-04-07 00:12:00,54.0,51.0,-100.00,NNE,14,0.0,2.0,90,0.00,,,0.00,0.000000,,2013-04-07 05:12:00,
2013-04-07 00:23:00,54.0,51.0,-100.00,NNE,14,0.0,2.0,90,0.00,,,0.00,0.000000,,2013-04-07 05:23:00,
2013-04-07 00:33:00,54.0,51.0,-100.00,NNE,14,0.0,2.0,90,0.00,,,0.00,0.000000,,2013-04-07 05:33:00,
2013-04-07 00:42:00,54.0,51.0,-100.00,NNE,14,0.0,2.0,90,0.00,,,0.00,0.000000,,2013-04-07 05:42:00,
2013-04-07 01:50:00,52.0,50.0,-100.00,ESE,115,0.0,3.0,92,-99.99,,,0.00,0.000000,,2013-04-07 06:50:00,
2013-04-07 02:12:00,52.0,50.0,-100.00,ESE,115,0.0,3.0,92,-99.99,,,0.00,0.000000,,2013-04-07 07:12:00,
2013-04-07 02:22:00,52.0,50.0,-100.00,ESE,115,0.0,3.0,92,-99.99,,,0.00,0.000000,,2013-04-07 07:22:00,
2013-04-07 02:32:00,52.0,50.0,-100.00,ESE,115,0.0,3.0,92,-99.99,,,0.00,0.000000,,2013-04-07 07:32:00,
2013-04-07 02:42:00,52.0,50.0,-100.00,ESE,115,0.0,3.0,92,-99.99,,,0.00,0.000000,,2013-04-07 07:42:00,
2013-04-07 02:50:00,50.0,48.0,-100.00,North,11,1.0,2.0,93,0.00,,,0.00,0.000000,,2013-04-07 07:50:00,
2013-04-07 03:22:00,50.0,48.0,-100.00,North,11,1.0,2.0,93,0.00,,,0.00,0.000000,,2013-04-07 08:22:00,
2013-04-07 03:32:00,50.0,48.0,-100.00,North,11,1.0,2.0,93,0.00,,,0.00,0.000000,,2013-04-07 08:32:00,
2013-04-07 03:42:00,50.0,48.0,-100.00,North,11,1.0,2.0,93,0.00,,,0.00,0.000000,,2013-04-07 08:42:00,
2013-04-07 03:50:00,49.0,47.0,-100.00,ENE,66,1.0,3.0,93,0.00,,,0.00,0.000000,,2013-04-07 08:50:00,
2013-04-07 04:22:00,49.0,47.0,-100.00,ENE,66,1.0,3.0,93,0.00,,,0.00,0.000000,,2013-04-07 09:22:00,
2013-04-07 04:33:00,49.0,47.0,-100.00,ENE,66,1.0,3.0,93,0.00,,,0.00,0.000000,,2013-04-07 09:33:00,
2013-04-07 04:43:00,49.0,47.0,-100.00,ENE,66,1.0,3.0,93,0.00,,,0.00,0.000000,,2013-04-07 09:43:00,
2013-04-07 04:50:00,48.0,46.0,-100.00,ENE,63,1.0,3.0,94,0.00,,,0.00,0.000000,,2013-04-07 09:50:00,
2013-04-07 05:13:00,48.0,46.0,-100.00,ENE,63,1.0,3.0,94,0.00,,,0.00,0.000000,,2013-04-07 10:13:00,
2013-04-07 05:23:00,48.0,46.0,-100.00,ENE,63,1.0,3.0,94,0.00,,,0.00,0.000000,,2013-04-07 10:23:00,
2013-04-07 05:33:00,48.0,46.0,-100.00,ENE,63,1.0,3.0,94,0.00,,,0.00,0.000000,,2013-04-07 10:33:00,
2013-04-07 05:43:00,48.0,46.0,-100.00,ENE,63,1.0,3.0,94,0.00,,,0.00,0.000000,,2013-04-07 10:43:00,
2013-04-07 05:50:00,49.0,47.0,-100.00,NNE,29,1.0,3.0,94,0.00,,,0.00,0.000000,,2013-04-07 10:50:00,
2013-04-07 06:22:00,49.0,47.0,-100.00,NNE,29,1.0,3.0,94,0.00,,,0.00,0.000000,,2013-04-07 11:22:00,
2013-04-07 06:33:00,49.0,47.0,-100.00,NNE,29,1.0,3.0,94,0.00,,,0.00,0.000000,,2013-04-07 11:33:00,
2013-04-07 06:42:00,49.0,47.0,-100.00,NNE,29,1.0,3.0,94,0.00,,,0.00,0.000000,,2013-04-07 11:42:00,
2013-04-07 06:50:00,48.0,47.0,-100.00,NE,34,1.0,3.0,95,0.00,,,0.00,3.000000,,2013-04-07 11:50:00,
2013-04-07 07:23:00,48.0,47.0,-100.00,NE,34,1.0,3.0,95,0.00,,,0.00,3.000000,,2013-04-07 12:23:00,
2013-04-07 07:34:00,48.0,47.0,-100.00,NE,34,1.0,3.0,95,0.00,,,0.00,3.000000,,2013-04-07 12:34:00,
2013-04-07 07:43:00,48.0,47.0,-100.00,NE,34,1.0,3.0,95,0.00,,,0.00,3.000000,,2013-04-07 12:43:00,
2013-04-07 07:50:00,53.0,51.0,-100.00,NE,36,3.0,4.0,94,0.00,,,0.00,113.000000,,2013-04-07 12:50:00,
2013-04-07 08:13:00,53.0,51.0,-100.00,NE,36,3.0,4.0,94,0.00,,,0.00,113.000000,,2013-04-07 13:13:00,
2013-04-07 08:22:00,53.0,51.0,-100.00,NE,36,3.0,4.0,94,0.00,,,0.00,113.000000,,2013-04-07 13:22:00,
2013-04-07 08:32:00,53.0,51.0,-100.00,NE,36,3.0,4.0,94,0.00,,,0.00,113.000000,,2013-04-07 13:32:00,
2013-04-07 08:42:00,53.0,51.0,-100.00,NE,36,3.0,4.0,94,0.00,,,0.00,113.000000,,2013-04-07 13:42:00,
2013-04-07 08:50:00,60.0,54.0,-100.00,NE,52,4.0,6.0,82,0.00,,,0.00,328.000000,,2013-04-07 13:50:00,
2013-04-07 09:12:00,60.0,54.0,-100.00,NE,52,4.0,6.0,82,0.00,,,0.00,328.000000,,2013-04-07 14:12:00,
2013-04-07 09:23:00,60.0,54.0,-100.00,NE,52,4.0,6.0,82,0.00,,,0.00,328.000000,,2013-04-07 14:23:00,
2013-04-07 09:33:00,60.0,54.0,-100.00,NE,52,4.0,6.0,82,0.00,,,0.00,328.000000,,2013-04-07 14:33:00,
2013-04-07 09:43:00,60.0,54.0,-100.00,NE,52,4.0,6.0,82,0.00,,,0.00,328.000000,,2013-04-07 14:43:00,
2013-04-07 09:50:00,65.0,57.0,-100.00,ENE,71,6.0,9.0,75,0.00,,,0.00,422.000000,,2013-04-07 14:50:00,
2013-04-07 10:13:00,65.0,57.0,-100.00,ENE,71,6.0,9.0,75,0.00,,,0.00,422.000000,,2013-04-07 15:13:00,
2013-04-07 10:22:00,65.0,57.0,-100.00,ENE,71,6.0,9.0,75,0.00,,,0.00,422.000000,,2013-04-07 15:22:00,
2013-04-07 10:34:00,65.0,57.0,-100.00,ENE,71,6.0,9.0,75,0.00,,,0.00,422.000000,,2013-04-07 15:34:00,
2013-04-07 10:44:00,65.0,57.0,-100.00,ENE,71,6.0,9.0,75,0.00,,,0.00,422.000000,,2013-04-07 15:44:00,
2013-04-07 10:50:00,68.0,57.0,-100.00,ESE,113,5.0,10.0,68,0.00,,,0.00,399.000000,,2013-04-07 15:50:00,
2013-04-07 11:24:00,68.0,57.0,-100.00,ESE,113,5.0,10.0,68,0.00,,,0.00,399.000000,,2013-04-07 16:24:00,
2013-04-07 11:33:00,68.0,57.0,-100.00,ESE,113,5.0,10.0,68,0.00,,,0.00,399.000000,,2013-04-07 16:33:00,
2013-04-07 11:43:00,68.0,57.0,-100.00,ESE,113,5.0,10.0,68,0.00,,,0.00,399.000000,,2013-04-07 16:43:00,
2013-04-07 12:50:00,72.0,55.0,-100.00,SE,146,8.0,16.0,55,-99.99,,,0.00,816.000000,,2013-04-07 17:50:00,
2013-04-07 13:23:00,72.0,55.0,-100.00,SE,146,8.0,16.0,55,-99.99,,,0.00,816.000000,,2013-04-07 18:23:00,
2013-04-07 13:33:00,72.0,55.0,-100.00,SE,146,8.0,16.0,55,-99.99,,,0.00,816.000000,,2013-04-07 18:33:00,
2013-04-07 13:43:00,72.0,55.0,-100.00,SE,146,8.0,16.0,55,-99.99,,,0.00,816.000000,,2013-04-07 18:43:00,
2013-04-07 13:50:00,74.0,52.0,-100.00,SE,141,9.0,16.0,47,0.00,,,0.00,815.000000,,2013-04-07 18:50:00,
2013-04-07 14:12:00,74.0,52.0,-100.00,SE,141,9.0,16.0,47,0.00,,,0.00,815.000000,,2013-04-07 19:12:00,
2013-04-07 14:22:00,74.0,52.0,-100.00,SE,141,9.0,16.0,47,0.00,,,0.00,815.000000,,2013-04-07 19:22:00,
2013-04-07 14:32:00,74.0,52.0,-100.00,SE,141,9.0,16.0,47,0.00,,,0.00,815.000000,,2013-04-07 19:32:00,
2013-04-07 14:42:00,74.0,52.0,-100.00,SE,141,9.0,16.0,47,0.00,,,0.00,815.000000,,2013-04-07 19:42:00,
2013-04-07 14:50:00,74.0,54.0,-100.00,South,172,9.0,17.0,49,0.00,,,0.00,770.000000,,2013-04-07 19:50:00,
2013-04-07 15:13:00,74.0,54.0,-100.00,South,172,9.0,17.0,49,0.00,,,0.00,770.000000,,2013-04-07 20:13:00,
2013-04-07 15:22:00,74.0,54.0,-100.00,South,172,9.0,17.0,49,0.00,,,0.00,770.000000,,2013-04-07 20:22:00,
2013-04-07 15:33:00,74.0,54.0,-100.00,South,172,9.0,17.0,49,0.00,,,0.00,770.000000,,2013-04-07 20:33:00,
2013-04-07 15:43:00,74.0,54.0,-100.00,South,172,9.0,17.0,49,0.00,,,0.00,770.000000,,2013-04-07 20:43:00,
2013-04-07 15:50:00,75.0,55.0,-100.00,South,181,7.0,16.0,49,0.00,,,-99.99,774.000000,,2013-04-07 20:50:00,
2013-04-07 16:22:00,75.0,55.0,-100.00,South,181,7.0,16.0,49,0.00,,,-99.99,774.000000,,2013-04-07 21:22:00,
2013-04-07 16:34:00,75.0,55.0,-100.00,South,181,7.0,16.0,49,0.00,,,-99.99,774.000000,,2013-04-07 21:34:00,
2013-04-07 16:43:00,75.0,55.0,-100.00,South,181,7.0,16.0,49,0.00,,,-99.99,774.000000,,2013-04-07 21:43:00,
2013-04-07 16:50:00,73.0,55.0,-100.00,SE,140,10.0,18.0,54,0.00,,,0.00,578.000000,,2013-04-07 21:50:00,
2013-04-07 17:14:00,73.0,55.0,-100.00,SE,140,10.0,18.0,54,0.00,,,0.00,578.000000,,2013-04-07 22:14:00,
2013-04-07 17:23:00,73.0,55.0,-100.00,SE,140,10.0,18.0,54,0.00,,,0.00,578.000000,,2013-04-07 22:23:00,
2013-04-07 17:34:00,73.0,55.0,-100.00,SE,140,10.0,18.0,54,0.00,,,0.00,578.000000,,2013-04-07 22:34:00,
2013-04-07 17:43:00,73.0,55.0,-100.00,SE,140,10.0,18.0,54,0.00,,,0.00,578.000000,,2013-04-07 22:43:00,
2013-04-07 17:50:00,73.0,57.0,-100.00,SSE,157,6.0,15.0,57,0.00,,,0.00,361.000000,,2013-04-07 22:50:00,
2013-04-07 18:22:00,73.0,57.0,-100.00,SSE,157,6.0,15.0,57,0.00,,,0.00,361.000000,,2013-04-07 23:22:00,
2013-04-07 18:32:00,73.0,57.0,-100.00,SSE,157,6.0,15.0,57,0.00,,,0.00,361.000000,,2013-04-07 23:32:00,
2013-04-07 18:43:00,73.0,57.0,-100.00,SSE,157,6.0,15.0,57,0.00,,,0.00,361.000000,,2013-04-07 23:43:00,
2013-04-07 18:50:00,70.0,56.0,-100.00,SSE,154,4.0,12.0,62,0.00,,,0.00,151.000000,,2013-04-07 23:50:00,
2013-04-07 19:12:00,70.0,56.0,-100.00,SSE,154,4.0,12.0,62,0.00,,,0.00,151.000000,,2013-04-08 00:12:00,
2013-04-07 19:22:00,70.0,56.0,-100.00,SSE,154,4.0,12.0,62,0.00,,,0.00,151.000000,,2013-04-08 00:22:00,
2013-04-07 19:32:00,70.0,56.0,-100.00,SSE,154,4.0,12.0,62,0.00,,,0.00,151.000000,,2013-04-08 00:32:00,
2013-04-07 19:42:00,70.0,56.0,-100.00,SSE,154,4.0,12.0,62,0.00,,,0.00,151.000000,,2013-04-08 00:42:00,
2013-04-07 20:50:00,64.0,59.0,-100.00,SE,131,4.0,7.0,83,-99.99,,,0.00,0.000000,,2013-04-08 01:50:00,
2013-04-07 21:22:00,64.0,59.0,-100.00,SE,131,4.0,7.0,83,-99.99,,,0.00,0.000000,,2013-04-08 02:22:00,
2013-04-07 21:33:00,64.0,59.0,-100.00,SE,131,4.0,7.0,83,-99.99,,,0.00,0.000000,,2013-04-08 02:33:00,
2013-04-07 21:47:00,64.0,59.0,-100.00,SE,131,4.0,7.0,83,-99.99,,,0.00,0.000000,,2013-04-08 02:47:00,
2013-04-07 21:50:00,64.0,60.0,-100.00,ESE,120,2.0,6.0,86,0.00,,,0.00,0.000000,,2013-04-08 02:50:00,
2013-04-07 22:25:00,64.0,60.0,-100.00,ESE,120,2.0,6.0,86,0.00,,,0.00,0.000000,,2013-04-08 03:25:00,
2013-04-07 22:34:00,64.0,60.0,-100.00,ESE,120,2.0,6.0,86,0.00,,,0.00,0.000000,,2013-04-08 03:34:00,
2013-04-07 22:47:00,64.0,60.0,-100.00,ESE,120,2.0,6.0,86,0.00,,,0.00,0.000000,,2013-04-08 03:47:00,
2013-04-07 22:50:00,60.0,57.0,-100.00,East,101,0.0,2.0,90,0.00,,,0.00,0.000000,,2013-04-08 03:50:00,
2013-04-07 23:12:00,60.0,57.0,-100.00,East,101,0.0,2.0,90,0.00,,,0.00,0.000000,,2013-04-08 04:12:00,
2013-04-07 23:23:00,60.0,57.0,-100.00,East,101,0.0,2.0,90,0.00,,,0.00,0.000000,,2013-04-08 04:23:00,
2013-04-07 23:33:00,60.0,57.0,-100.00,East,101,0.0,2.0,90,0.00,,,0.00,0.000000,,2013-04-08 04:33:00,
2013-04-07 23:44:00,60.0,57.0,-100.00,East,101,0.0,2.0,90,0.00,,,0.00,0.000000,,2013-04-08 04:44:00,
2013-04-07 23:50:00,60.0,58.0,-100.00,ESE,106,2.0,4.0,92,0.00,,,0.00,0.000000,,2013-04-08 04:50:00,